This demonstration page uses our WeatherBlox Daily Observations layout. Learn more.

Left ArrowRight Arrow

36.19886, -115.1175

Hourly Observations for February 27, 2017

Temp ( °F °C ) Dew Point ( °F °C ) Humidity (%) Winds ( mph kmh ) Pressure ( in mb ) Visibility ( mi km ) Precip ( " mm )
12:53 am 00:53 Cloudy 51 10.6 33 0.6 50 50 SSE 17 28 29.79 1009 10 16 0.00 0.00
1:53 am 01:53 Mostly Clear 50 10 32 0 50 50 S 18 30 29.78 1008 10 16 0.00 0.00
2:53 am 02:53 Clear 49 9.4 31 -0.6 50 50 SSE 17 28 29.75 1008 10 16 0.00 0.00
3:53 am 03:53 Clear 49 9.4 29 -1.7 46 46 S 18 30 29.75 1007 10 16 0.00 0.00
4:53 am 04:53 Clear 48 8.9 27 -2.8 44 44 S 18 30 29.75 1007 10 16 0.00 0.00
5:53 am 05:53 Clear 47 8.3 28 -2.2 48 48 SSW 20 31 29.75 1007 10 16 0.00 0.00
6:53 am 06:53 Sunny 50 10 23 -5 35 35 WSW 20 31 29.77 1008 10 16 0.00 0.00
7:53 am 07:53 Sunny 51 10.6 24 -4.4 35 35 WSW 16 26 29.80 1009 10 16 0.00 0.00
8:53 am 08:53 Sunny 52 11.1 27 -2.8 38 38 S 14 22 29.82 1010 10 16 0.00 0.00
9:53 am 09:53 Partly Cloudy 54 12.2 29 -1.7 38 38 S 16 26 29.82 1010 10 16 0.00 0.00
10:53 am 10:53 Partly Cloudy 55 12.8 30 -1.1 38 38 S 20 31 29.83 1010 10 16 0.00 0.00
11:53 am 11:53 Partly Cloudy 55 12.8 32 0 42 42 SSW 13 20 29.82 1010 10 16 0.00 0.00
12:53 pm 12:53 Mostly Cloudy 55 12.8 33 0.6 44 44 S 18 30 29.80 1009 10 16 0.00 0.00
1:53 pm 13:53 Sunny 55 12.8 34 1.1 45 45 SSW 14 22 29.80 1009 10 16 0.00 0.00
2:53 pm 14:53 Sunny 56 13.3 35 1.7 46 46 S 12 19 29.78 1008 10 16 0.00 0.00
3:53 pm 15:53 Sunny 56 13.3 32 0 40 40 SW 15 24 29.76 1008 10 16 0.00 0.00
4:53 pm 16:53 Mostly Cloudy 55 12.8 34 1.1 45 45 S 7 11 29.76 1008 10 16 0.00 0.00
5:53 pm 17:53 Partly Cloudy 54 12.2 35 1.7 49 49 S 12 19 29.78 1008 10 16 0.00 0.00
6:53 pm 18:53 Mostly Cloudy 53 11.7 35 1.7 51 51 S 14 22 29.77 1008 10 16 0.00 0.00
7:53 pm 19:53 Mostly Cloudy 54 12.2 28 -2.2 37 37 W 7 11 29.78 1008 10 16 0.00 0.00
8:53 pm 20:53 Mostly Clear 52 11.1 30 -1.1 43 43 NW 10 17 29.77 1008 10 16 0.00 0.00
9:53 pm 21:53 Clear 51 10.6 35 1.7 54 54 WSW 5 7 29.77 1008 10 16 0.00 0.00
10:53 pm 22:53 Clear 50 10 37 2.8 61 61 Calm 29.77 1008 10 16 0.00 0.00
11:53 pm 23:53 Partly Cloudy 48 8.9 34 1.1 58 58 ENE 7 11 29.80 1009 10 16 0.00 0.00

Powered by AerisWeather